Weather History for Osceola, WI

Change the Weather History Date:

Friday, February 1, 2013

  Actual Average (KMSP) Record (KMSP)
Temperature  
Mean Temperature -6 °F 17 °F  
Max Temperature 1 °F 25 °F 54 °F (1931)
Min Temperature -14 °F 9 °F -28 °F (1951)
Degree Days  
Heating Degree Days 72 48  
Month to date heating degree days 48  
Since 1 July heating degree days 4602  
Cooling Degree Days 0 0  
Month to date cooling degree days 0  
Year to date cooling degree days 0  
Moisture  
Dew Point -13 °F    
Average Humidity 69    
Maximum Humidity 85    
Minimum Humidity 51    
Precipitation  
Precipitation 0.00 in 0.02 in 0.89 in (1922)
Month to date precipitation 0.02  
Year to date precipitation 0.92  
Snow  
Snow 0.00 in 0.30 in 4.30 in (1899)
Month to date snowfall 0.3  
Since 1 July snowfall 34.3  
Snow Depth -    
Sea Level Pressure  
Sea Level Pressure 30.22 in    
Wind  
Wind Speed 6 mph (SW)    
Max Wind Speed 10 mph    
Max Gust Speed -    
Visibility 8 miles    
Events Snow    
T = Trace of Precipitation, MM = Missing Value Source: NWS Daily Summary

Daily Weather History Graph

Daily Weather History Graph

Search for Another Location

Airport:

Trip Planner

Search our weather history database for the weather conditions in past years. The results will help you decide how hot, cold, wet, or windy it might be!

Date:

Astronomy

Feb. 01, 2013 Rise Set
Actual Time 7:31 AM CST 5:18 PM CST
Civil Twilight 6:59 AM CST 5:49 PM CST
Nautical Twilight 6:24 AM CST 6:25 PM CST
Astronomical Twilight 5:49 AM CST 6:59 PM CST
Moon 11:47 PM CST (2/1) 9:45 AM CST (2/1)
Length of Visible Light 10h 50m
Length of Day
9h 47m
Waning Gibbous, 70% of the Moon is Illuminated
Feb 1
Waning Gibbous
Feb 3
Last Quarter
Feb 10
New
Feb 17
First Quarter
Feb 25
Full

Hourly Weather History & Observations

Time (CST) Temp. Windchill Dew Point Humidity Pressure Visibility Wind Dir Wind Speed Gust Speed Precip Events Conditions
12:15 AM -7.6 °F -23.4 °F -16.6 °F 65% 30.26 in 10.0 mi West 8.1 mph - N/A   Clear
12:35 AM -7.6 °F -23.4 °F -16.6 °F 65% 30.27 in 10.0 mi West 8.1 mph - N/A   Clear
12:55 AM -7.6 °F -24.6 °F -18.4 °F 59% 30.27 in 10.0 mi West 9.2 mph - N/A   Clear
1:15 AM -9.4 °F -26.8 °F -18.4 °F 65% 30.27 in 10.0 mi West 9.2 mph - N/A   Clear
1:35 AM -9.4 °F -27.9 °F -18.4 °F 65% 30.28 in 10.0 mi West 10.4 mph - N/A   Clear
1:55 AM -9.4 °F -26.8 °F -18.4 °F 65% 30.28 in 10.0 mi West 9.2 mph - N/A   Clear
2:15 AM -9.4 °F -26.8 °F -18.4 °F 65% 30.29 in 10.0 mi West 9.2 mph - N/A   Clear
2:35 AM -9.4 °F -26.8 °F -18.4 °F 65% 30.29 in 10.0 mi West 9.2 mph - N/A   Clear
2:55 AM -9.4 °F -25.6 °F -18.4 °F 65% 30.29 in 10.0 mi West 8.1 mph - N/A   Clear
3:15 AM -11.2 °F -27.8 °F -18.4 °F 70% 30.28 in 10.0 mi West 8.1 mph - N/A   Clear
3:35 AM -11.2 °F -26.4 °F -18.4 °F 70% 30.29 in 10.0 mi West 6.9 mph - N/A   Clear
3:55 AM -13.0 °F -27.0 °F -18.4 °F 77% 30.29 in 10.0 mi West 5.8 mph - N/A   Clear
4:15 AM -13.0 °F -27.0 °F -20.2 °F 70% 30.29 in 10.0 mi West 5.8 mph - N/A   Clear
4:35 AM -13.0 °F -27.0 °F -20.2 °F 70% 30.29 in 10.0 mi WSW 5.8 mph - N/A   Clear
4:55 AM -14.8 °F -29.1 °F -20.2 °F 77% 30.30 in 10.0 mi West 5.8 mph - N/A   Clear
5:15 AM -14.8 °F -30.8 °F -20.2 °F 77% 30.31 in 10.0 mi WSW 6.9 mph - N/A   Clear
5:35 AM -14.8 °F -30.8 °F -20.2 °F 77% 30.31 in 10.0 mi West 6.9 mph - N/A   Clear
5:55 AM -14.8 °F -30.8 °F -20.2 °F 77% 30.31 in 10.0 mi West 6.9 mph - N/A   Clear
6:15 AM -14.8 °F -30.8 °F -20.2 °F 77% 30.31 in 10.0 mi West 6.9 mph - N/A   Clear
6:35 AM -14.8 °F -27.2 °F -20.2 °F 77% 30.32 in 10.0 mi West 4.6 mph - N/A   Clear
7:15 AM -14.8 °F -27.2 °F -20.2 °F 77% 30.31 in 10.0 mi West 4.6 mph - N/A   Clear
7:35 AM -14.8 °F -24.8 °F -20.2 °F 77% 30.31 in 10.0 mi WSW 3.5 mph - N/A   Clear
7:55 AM -14.8 °F - -20.2 °F 77% 30.31 in 10.0 mi Calm Calm - N/A   Clear
8:15 AM -14.8 °F - -20.2 °F 77% 30.31 in 10.0 mi Calm Calm - N/A   Clear
8:35 AM -14.8 °F - -20.2 °F 77% 30.30 in 10.0 mi Calm Calm - N/A   Clear
8:55 AM -13.0 °F - -18.4 °F 77% 30.30 in 10.0 mi Calm Calm - N/A   Clear
9:15 AM -11.2 °F -20.6 °F -18.4 °F 70% 30.30 in 10.0 mi WSW 3.5 mph - N/A   Clear
9:35 AM -9.4 °F -22.7 °F -18.4 °F 65% 30.29 in 10.0 mi West 5.8 mph - N/A   Clear
9:55 AM -9.4 °F -22.7 °F -18.4 °F 65% 30.29 in 10.0 mi West 5.8 mph - N/A   Clear
10:15 AM -9.4 °F -18.6 °F -18.4 °F 65% 30.28 in 10.0 mi West 3.5 mph - N/A   Clear
10:35 AM -7.6 °F - -16.6 °F 65% 30.28 in 10.0 mi Calm Calm - N/A   Clear
10:55 AM -7.6 °F - -16.6 °F 65% 30.28 in 10.0 mi Calm Calm - N/A   Clear
11:15 AM -7.6 °F -16.5 °F -16.6 °F 65% 30.28 in 10.0 mi SSW 3.5 mph - N/A   Clear
11:35 AM -5.8 °F -18.4 °F -16.6 °F 60% 30.27 in 10.0 mi SSW 5.8 mph - N/A   Clear
11:55 AM -4.0 °F - -16.6 °F 55% 30.26 in 10.0 mi Calm Calm - N/A   Clear
12:15 PM -4.0 °F - -16.6 °F 55% 30.25 in 10.0 mi Calm Calm - N/A   Clear
12:35 PM -4.0 °F -12.4 °F -16.6 °F 55% 30.25 in 10.0 mi WSW 3.5 mph - N/A   Clear
12:55 PM -2.2 °F -16.8 °F -14.8 °F 55% 30.24 in 10.0 mi SW 8.1 mph - N/A   Clear
1:15 PM -0.4 °F -14.7 °F -14.8 °F 51% 30.23 in 10.0 mi SW 8.1 mph - N/A   Clear
1:35 PM -0.4 °F -10.4 °F -14.8 °F 51% 30.21 in 10.0 mi WSW 4.6 mph - N/A   Clear
1:55 PM -0.4 °F -8.3 °F -14.8 °F 51% 30.20 in 10.0 mi SW 3.5 mph - N/A   Scattered Clouds
2:15 PM -0.4 °F -8.3 °F -14.8 °F 51% 30.20 in 10.0 mi SW 3.5 mph - N/A   Overcast
2:35 PM 1.4 °F -8.3 °F -13.0 °F 51% 30.18 in 10.0 mi SSW 4.6 mph - N/A   Overcast
2:55 PM 1.4 °F -11.3 °F -13.0 °F 51% 30.17 in 10.0 mi South 6.9 mph - N/A   Mostly Cloudy
3:15 PM 1.4 °F -11.3 °F -13.0 °F 51% 30.17 in 10.0 mi SSE 6.9 mph - N/A   Scattered Clouds
3:35 PM 1.4 °F -11.3 °F -11.2 °F 56% 30.16 in 10.0 mi SSE 6.9 mph - N/A   Mostly Cloudy
3:55 PM 1.4 °F -11.3 °F -11.2 °F 56% 30.16 in 10.0 mi SSE 6.9 mph - N/A   Mostly Cloudy
4:15 PM 1.4 °F -11.3 °F -9.4 °F 61% 30.15 in 10.0 mi SSE 6.9 mph - N/A   Mostly Cloudy
4:35 PM 1.4 °F -11.3 °F -9.4 °F 61% 30.15 in 10.0 mi SSE 6.9 mph - N/A   Overcast
5:15 PM 1.4 °F -8.3 °F -7.6 °F 66% 30.14 in 7.0 mi SE 4.6 mph - N/A Snow Light Snow
5:35 PM 1.4 °F -8.3 °F -7.6 °F 66% 30.14 in 5.0 mi SE 4.6 mph - N/A Snow Light Snow
5:55 PM 1.4 °F -6.2 °F -5.8 °F 72% 30.13 in 5.0 mi SE 3.5 mph - N/A Snow Light Snow
6:15 PM 1.4 °F -8.3 °F -5.8 °F 72% 30.13 in 4.0 mi ESE 4.6 mph - N/A Snow Light Snow
6:35 PM 1.4 °F -6.2 °F -5.8 °F 72% 30.13 in 4.0 mi SE 3.5 mph - N/A Snow Light Snow
6:55 PM 1.4 °F -9.9 °F -5.8 °F 72% 30.13 in 2.5 mi ESE 5.8 mph - N/A Snow Light Snow
7:15 PM 1.4 °F -8.3 °F -5.8 °F 72% 30.13 in 3.0 mi East 4.6 mph - N/A Snow Light Snow
7:35 PM -0.4 °F -10.4 °F -4.0 °F 85% 30.12 in 2.0 mi ESE 4.6 mph - N/A Snow Light Snow
7:55 PM 1.4 °F -8.3 °F -4.0 °F 78% 30.12 in 3.0 mi East 4.6 mph - N/A Snow Light Snow
8:15 PM 1.4 °F -6.2 °F -4.0 °F 78% 30.11 in 4.0 mi East 3.5 mph - N/A Snow Light Snow
8:35 PM 1.4 °F -6.2 °F -4.0 °F 78% 30.12 in 2.5 mi NE 3.5 mph - N/A Snow Light Snow
8:55 PM 1.4 °F -8.3 °F -4.0 °F 78% 30.11 in 2.5 mi ENE 4.6 mph - N/A Snow Light Snow
9:15 PM 1.4 °F -6.2 °F -4.0 °F 78% 30.11 in 2.0 mi ENE 3.5 mph - N/A Snow Light Snow
9:35 PM 1.4 °F -6.2 °F -4.0 °F 78% 30.11 in 3.0 mi ENE 3.5 mph - N/A Snow Light Snow
9:55 PM 1.4 °F -8.3 °F -4.0 °F 78% 30.10 in 7.0 mi ENE 4.6 mph - N/A Snow Light Snow
10:15 PM 1.4 °F -6.2 °F -4.0 °F 78% 30.10 in 10.0 mi East 3.5 mph - N/A Snow Light Snow
10:35 PM 1.4 °F -8.3 °F -4.0 °F 78% 30.09 in 10.0 mi East 4.6 mph - N/A Snow Light Snow
10:55 PM 1.4 °F -8.3 °F -4.0 °F 78% 30.09 in 10.0 mi East 4.6 mph - N/A Snow Light Snow
11:15 PM 1.4 °F -8.3 °F -4.0 °F 78% 30.09 in 4.0 mi East 4.6 mph - N/A Snow Light Snow
11:35 PM 1.4 °F -6.2 °F -2.2 °F 85% 30.09 in 2.5 mi East 3.5 mph - N/A Snow Light Snow
11:55 PM 1.4 °F -6.2 °F -2.2 °F 85% 30.09 in 4.0 mi East 3.5 mph - N/A Snow Light Snow